Tracking 21496 objects as of 1-Oct-2020
HD Live streaming from Space Station
objects crossing your sky now

SL-3 DEB

Track SL-3 DEB now!
10-day predictions


NORAD ID: 9664
Int'l Code: 1977-002D
Perigee: 887.1 km
Apogee: 901.4 km
Inclination: 81.3 °
Period: 102.7 minutes
Semi major axis: 7265 km
RCS: 0.0154 m2 (small)
Launch date: January 6, 1977
Source: Commonwealth of Independent States (former USSR) (CIS)
Launch site: PLESETSK MISSILE AND SPACE COMPLEX (PKMTR)

Note: This is SATELLITE DEBRIS
aabbcc
Your satellite tracking list
Your tracking list is empty




NASA's NSSDC Master Catalog

Two Line Element Set (TLE):
1  9664U 77002D   20274.91369011 -.00000004  00000-0 -10713-4 0  9998
2  9664  81.2663 321.5821 0009805 127.2866 232.9196 14.01930301236699
Source of the keplerian elements: AFSPC